Regional Weather Roundup
Issued by NWS Little Rock, AR

Home | Current Version | Previous Version | Text Only | Print | Product List | Glossary On
Versions: 1 2 3 4 5 6 7 8 9 10 11 12 13 14 15 16 17 18 19 20 21 22 23 24 25 26 27 28 29 30 31 32 33 34 35 36 37 38 39 40 41 42 43 44 45 46 47 48 49 50
000
ASUS44 KLZK 120505
RWRLZK

WEATHER ROUNDUP FOR ARKANSAS
NATIONAL WEATHER SERVICE LITTLE ROCK AR
1100 PM CST MON DEC 11 2017

NOTE: "FAIR" INDICATES FEW OR NO CLOUDS BELOW 12,000 FEET WITH NO
SIGNIFICANT WEATHER AND/OR OBSTRUCTIONS TO VISIBILITY.

ARZ001-003-010-029-120600-
NORTHWEST ARKANSAS

CITY           SKY/WX    TMP DP  RH WIND       PRES   REMARKS
FAYETTEVILLE   CLEAR     46  29  51 NW17G26   30.17R
FORT SMITH     PTCLDY    54  27  35 N17G24    30.17R
HARRISON       CLOUDY    48  28  46 NW8G17    30.11R
BENTONVILLE    CLEAR     45  28  51 NW10G18   30.20R
ROGERS         CLEAR     44  29  55 NW13G22   30.18R
SILOAM SPGS    PTCLDY    45  29  53 N22       30.20R
HIGHFILL       CLEAR     45  29  53 NW15G23   30.18R
$$

ARZ004-005-016-120600-
NORTH CENTRAL ARKANSAS

CITY           SKY/WX    TMP DP  RH WIND       PRES   REMARKS
BATESVILLE     CLOUDY    54  26  34 NW10G18   30.05R
FLIPPIN        CLEAR     49  28  44 NW15G25   30.10R
MTN HOME       CLEAR     48  28  46 N9        30.08R
$$

ARZ040-041-120600-
WEST CENTRAL ARKANSAS

CITY           SKY/WX    TMP DP  RH WIND       PRES   REMARKS
MENA           CLEAR     55  21  26 NW12G17   30.15R
MOUNT IDA      CLEAR     56  21  25 NW10      30.09R
$$

ARZ009-017-025-026-028-120600-
NORTHEAST ARKANSAS

CITY           SKY/WX    TMP DP  RH WIND       PRES   REMARKS
CORNING        FAIR      48  30  49 NW12      30.02
JONESBORO      CLOUDY    53  30  41 N13G21    30.02R
NEWPORT        CLOUDY    52  26  36 NW14      30.04R
WALNUT RIDGE   CLOUDY    48  28  46 NW13      30.04R
BLYTHEVILLE    CLOUDY    49  32  52 NW9       30.01R
$$

ARZ022-023-033-042-044-120600-
CENTRAL ARKANSAS

CITY           SKY/WX    TMP DP  RH WIND       PRES   REMARKS
LITTLE ROCK    MOCLDY    54  21  27 N8        30.06R
N LITTLE ROCK    N/A     55  24  29 N6        30.08R
JACKSONVILLE   CLOUDY    56  22  26 NW6       30.05R
SEARCY         CLOUDY    56  27  32 NW13G21   30.05
HOT SPRINGS    CLEAR     56  20  24 W5        30.08R
RUSSELLVILLE   CLOUDY    54  24  31 NW8       30.09R
CLINTON        FAIR      54  27  35 VRB3      30.08R
$$

ARZ036-120600-
EAST ARKANSAS

CITY           SKY/WX    TMP DP  RH WIND       PRES   REMARKS
WEST MEMPHIS   PTCLDY    47  29  49 CALM      30.00S
$$

ARZ050-053-066-070-073-120600-
SOUTHWEST ARKANSAS

CITY           SKY/WX    TMP DP  RH WIND       PRES   REMARKS
ARKADELPHIA    FAIR      59  21  23 NW13G18   30.08R
CAMDEN         PTCLDY    55  19  24 NW7       30.06R
TEXARKANA      CLEAR     55  21  26 NW8       30.12R
EL DORADO      CLEAR     55  27  34 W6        30.07R
DE QUEEN       CLEAR     57  20  23 N6        30.11R
$$

ARZ056-057-069-120600-
SOUTHEAST ARKANSAS

CITY           SKY/WX    TMP DP  RH WIND       PRES   REMARKS
PINE BLUFF     CLEAR     53  24  32 N10       30.04R
STUTTGART      CLOUDY    51  28  41 N8        30.04S
MONTICELLO     CLEAR     55  27  34 NW6       30.03R

$$





USA.gov is the U.S. government's official web portal to all federal, state and local government web resources and services.